www.pogodaiklimat.ru

Погода и климат >> Архив погоды >> Казахстан >> Иргиз


АРХИВ ПОГОДЫ в Иргизе

Время (UTC), дата Ветер
(напр.,м/с)
 
Видим.   Явления Облачность Т
(С)
Тd
(С)
f
(%)
Тe
(С)
Тes
(С)
Комфортность P
(гПа)
Po
(гПа)
Тmin
(С)
Tmax
(С)
R
(мм)
R24
(мм)
S
(см)
03 16.08 С 4 50 км ясно +19.7 +10.9 57 +21 +23 комфорт 1015.7 1002.1
06 16.08 С 6 50 км 1/1 1000 м
[Cu hum]
+25.8 +6.1 28 +25 +30 комфорт 1015.7 1002.3 +16.2
09 16.08 С 4 50 км ясно +28.1 +5.7 24 +27 +36 жарко 1014.8 1001.5
12 16.08 С 4 50 км ясно +29.4 +4.3 20 +28 +31 жарко 1014.0 1000.8
15 16.08 С 3 50 км 4/0
[Cc]
+28.0 +4.9 23 +27 +27 жарко 1014.5 1001.2 +30.0
18 16.08 С 2 н/о ясно +23.0 +5.6 32 +23 +23 комфорт 1015.5 1002.0 +30.0
21 16.08 С 2 н/о ясно +20.2 +5.7 39 +22 +22 комфорт 1015.8 1002.1
00 17.08 С 2 н/о ясно +17.1 +5.2 45 +17 +17 1016.6 1002.8
03 17.08 С 2 50 км ясно +18.7 +5.4 42 +20 +22 1017.3 1003.6
06 17.08 С 3 50 км ясно +28.6 +6.6 25 +28 +37 жарко 1017.3 1004.1 +16.4
09 17.08 В 3 50 км ясно +30.1 +5.0 20 +28 +39 жарко 1016.4 1003.2
12 17.08 СВ 4 50 км 3/0
[Ci sp]
+31.7 +4.2 18 +29 +33 жарко 1015.5 1002.4
15 17.08 СВ 3 50 км ясно +30.3 +4.7 20 +28 +28 жарко 1016.0 1002.8 +32.8
18 17.08 В 2 н/о ясно +24.3 +5.6 30 +24 +24 комфорт 1017.2 1003.7 +32.8
21 17.08 С 2 н/о ясно +17.7 +5.0 43 +18 +18 1017.8 1004.0
00 18.08 С 2 н/о ясно +18.9 +6.5 44 +20 +20 1019.0 1005.2
03 18.08 СВ 2 50 км ясно +21.4 +6.7 39 +22 +25 комфорт 1019.8 1006.2
06 18.08 В 2 50 км ясно +28.8 +6.6 25 +28 +39 жарко 1020.2 1006.9 +17.2
12 18.08 СВ 2 50 км ясно +32.4 +4.9 18 +30 +35 жарко 1019.2 1006.0
18 18.08 В 2 н/о ясно +26.2 +8.2 32 +26 +26 жарко 1021.1 1007.7 +33.4
21 18.08 С 1 н/о ясно +19.9 +6.5 42 +22 +22 комфорт 1021.9 1008.2
00 19.08 С 1 н/о ясно +18.6 +7.3 48 +20 +20 1022.8 1009.0
03 19.08 С 1 50 км 3/0
[Ci sp]
+21.6 +8.5 43 +23 +25 комфорт 1023.8 1010.1
06 19.08 ЮЗ 2 50 км 3/0
[Ci fib]
+32.7 +7.1 20 +31 +42 жарко 1023.5 1010.3 +18.5
09 19.08 СЗ 1 50 км 3/0
[Ci fib]
+34.6 +6.4 17 +32 +47 жарко 1022.5 1009.5
12 19.08 СЗ 2 50 км 3/1 1000 м
[Cu hum Ci fib]
+36.2 +5.5 15 +34 +38 очень
жарко
1021.3 1008.3
15 19.08 З 2 50 км ясно +33.1 +4.3 16 +30 +30 жарко 1021.3 1008.1 +37.0
18 19.08 З 4 н/о ясно +26.6 +4.1 24 +26 +26 жарко 1021.5 1008.0 +37.0
21 19.08 С 4 н/о ясно +23.6 +4.0 28 +23 +23 комфорт 1021.3 1007.7
00 20.08 СЗ 4 н/о ясно +21.5 +5.4 35 +22 +22 комфорт 1021.5 1007.8
03 20.08 С 2 50 км ясно +23.2 +7.5 36 +24 +26 комфорт 1022.4 1008.8
06 20.08 В 3 50 км ясно +32.0 +10.2 26 +32 +41 жарко 1022.3 1009.1 +21.4
09 20.08 В 2 50 км 4/0
[Ci sp]
+35.2 +8.0 19 +33 +45 жарко 1020.9 1007.9
12 20.08 С 3 50 км 9/0
[Ac lent Ci sp]
+36.0 +6.1 16 +34 +36 очень
жарко
1019.6 1006.6
15 20.08 ЮВ 2 50 км 9/0
[Ci sp]
+32.4 +9.6 25 +32 +32 жарко 1018.7 1005.6 +36.6
18 20.08 Ю 1 н/о ясно +26.1 +10.4 37 +27 +27 жарко 1018.5 1005.1 +36.6
21 20.08 Ю 3 н/о 9/0
[Ac und]
+28.1 +8.9 30 +28 +28 жарко 1017.1 1003.8
00 21.08 С 1 н/о 9/0
[Ac und]
+24.0 +8.0 36 +24 +24 комфорт 1016.3 1002.8
03 21.08 З 3 50 км 9/0
[Ac und]
+25.2 +5.1 27 +25 +25 комфорт 1015.2 1001.8
06 21.08 СЗ 4 50 км 3/0
[Ci sp]
+33.8 +3.4 15 +31 +38 жарко 1013.8 1000.8 +23.7
09 21.08 З 8 50 км 3/0
[Ci sp]
+38.5 +5.9 14 +36 +38 очень
жарко
1010.9 998.1
12 21.08 ЮЗ 6 50 км 3/0
[Ci sp]
+37.9 +5.6 14 +35 +37 очень
жарко
1008.8 996.0
15 21.08 СЗ 7 50 км ясно +35.9 +1.8 12 +33 +33 жарко 1009.7 996.8 +38.7
18 21.08 С 4 н/о ясно +27.5 +10.3 34 +28 +28 жарко 1012.1 998.8 +38.7
21 21.08 С 6 н/о ясно +22.8 +13.9 57 +26 +26 жарко 1013.8 1000.3
00 22.08 С 5 н/о ясно +18.4 +12.7 69 +18 +18 1015.9 1002.2
03 22.08 СВ 5 50 км 3/0
[Ci sp]
+17.9 +11.7 67 +18 +19 1017.4 1003.7
06 22.08 В 5 50 км 3/0
[Ci ing]
+22.5 +7.3 38 +23 +29 комфорт 1018.3 1004.7 +17.8
12 22.08 В 6 50 км ясно +26.6 +5.4 26 +26 +28 жарко 1017.4 1004.0
18 22.08 СВ 2 н/о ясно +19.8 +3.5 34 +21 +21 комфорт 1019.4 1005.7 +27.5

 

Местоположение метеостанции Иргиз (Актюбинская область, Казахстан): широта 48.62 долгота 61.27 высота над уровнем моря 114 м.

В архиве по умолчанию представлена погода в Иргизе за последнюю неделю. Архивные данные за месяц целиком и за предыдущие месяцы, начиная с января 2011 года, Вы можете получить, выбрав интересующий диапазон дат из раскрывающегося списка и нажав кнопку "Ввод!".


*Определитесь, кто Вы:
робот инопланетянин человек

Внимание! Время в таблицах - всемирное. Для получения местного времени необходимо прибавить поправку, которая равна 4 ч.

Смотрите также архив погоды в соседних городах и на ближайших метеорологических станциях:

Погода в Нуре (Актюбинская область, Казахстан) (65 км)
Погода в Шалкаре (Актюбинская область, Казахстан) (149 км)
Погода в Баскудуке (Мангистауская область, Казахстан) (152 км)
Погода в Карабутаке (Актюбинская область, Казахстан) (169 км)
Погода в Тургае (Костанайская область, Казахстан) (197 км)
Погода в Мугалжаре (Актюбинская область, Казахстан) (204 км)
Погода в Аральске (Кызылординская область, Казахстан) (207 км)
Погода в Комсомольском (Костанайская область, Казахстан) (208 км)
Погода в Эмбе (Актюбинская область, Казахстан) (230 км)
Погода в Кульжамбае (Карагандинская область, Казахстан) (251 км)

Пояснения к столбцам:

Ветер - указаны скорость ветра в м/с - средняя за 10 мин, порывы в срок и между сроками (в фигурных скобках) и направление, откуда дует ветер: С - северный, СВ - северо-восточный, В - восточный, ЮВ - юго-восточный, Ю - южный, ЮЗ - юго-западный, З - западный, СЗ - северо-западный.
Видимость - горизонтальная дальность видимости в метрах или километрах. При видимости от 1 до 10 км при отсутствии осадков обычно наблюдается дымка, при ухудшении видимости до 1 км и менее - туман. В сухую погоду видимость может ухудшаться дымом, пылью или мглою.
Явления - указаны атмосферные явления, наблюдавшиеся в срок или в последний час перед сроком; фигурными скобками обозначены явления, наблюдавшиеся между сроками (за 1-3 часа до срока); квадратными скобками обозначены град или гололедные отложения с указанием их диаметра в мм.
Облачность - указаны через наклонную черту общая и нижняя облачность в баллах и высота нижней границы облаков в метрах; квадратными скобками обозначены формы облаков: Ci - перистые, Cs - перисто-слоистые, Cc - перисто-кучевые, Ac - высококучевые, As - высокослоистые, Sc - слоисто-кучевые, Ns - слоисто-дождевые, Cu - кучевые, Cb - кучево-дождевые. Подробнее классификацию облаков см. в Атласе облаков (PDF).
T - Температура воздуха - температура, измеренная на высоте 2 м над землей.
Td - Температура точки росы - температура, при понижении до которой содержащийся в воздухе водяной пар достигнет насыщения.
f - Относительная влажность воздуха - влажноcть воздуха, измеренная на высоте 2 м над землей.
Te - Эффективная температура - температура, которую ощущает одетый по сезону человек в тени. Характеристика душности погоды. При расчете учитывается влияние влажности воздуха и скорости ветра на теплоощущения человека.
Tes - Эффективная температура на солнце - температура, которую ощущает человек, с поправкой на солнечный нагрев. Характеристика знойности погоды. Зависит от высоты солнца над горизонтом, облачности и скорости ветра. Ночью, в пасмурную погоду, а также при ветре 12 м/с и более поправка равна нулю.
P - Атмосферное давление - приведенное к уровню моря атмосферное давление.
Po - Атмосферное давление - измеренное на уровне метеостанции атмосферное давление.
Tmin - Минимальная температура - минимум температуры воздуха на высоте 2 м над землей.
Tmax - Максимальная температура - максимум температуры воздуха на высоте 2 м над землей.
R - Количество осадков - Количество выпавших осадков за период времени, мм. При наведении курсора мыши на число - период времени, за который выпало указанное количество осадков.
R24 - Количество осадков - Количество выпавших осадков за 24 часа, мм.
S - Снежный покров - Высота снежного покрова, см. При наведении курсора мыши на число - состояние снежного покрова и степень покрытия местности в баллах.